Location: Newark
(22.3060°N, 114.2134°E)
Time: 07:32:54
(UTC+00:00)

Explorer 11/Cluster Stage 4 - Pass Details

Date: 04 August 2021
Orbit: 467 x 1256 km, 28.8° (Epoch: 24 September)

Event Time Altitude Azimuth Distance (km) Brightness Sun altitude
Rises 04:17:40 0° 289° (WNW) 4,186 10.3 84.2°
Reaches altitude 10° 04:20:37 10° 291° (WNW) 3,228 9.8 84.5°
Maximum altitude 04:28:54 77° 16° (NNE) 1,235 9.4 84.9°
Drops below altitude 10° 04:36:24 10° 103° (ESE) 2,937 9.7 84.6°
Sets 04:38:59 0° 104° (ESE) 3,794 10.1 84.4°
